Location: ??????
(55.7522°N, 37.6156°E)
Time: 18:01:36
(UTC+00:00)

Meteor 1-21 - Pass Details

Date: 14 June 2025
Orbit: 843 x 886 km, 81.2° (Epoch: 13 July)

Event Time Altitude Azimuth Distance (km) Brightness Sun altitude
Exits shadow 19:59:51 - 195° (SSW) 3,037 6.6 -8.6°
Reaches altitude 10° 20:01:14 10° 196° (SSW) 2,505 6.2 -8.7°
Maximum altitude 20:06:57 83° 285° (WNW) 887 4.4 -9.0°
Drops below altitude 10° 20:12:47 10° 14° (NNE) 2,549 7.7 -9.3°
Sets 20:15:15 0° 15° (NNE) 3,497 8.5 -9.4°
